STARLINK-32648, 62301

Orbit data source: Space-Track

STARLINK-32648, 62301 is a payload satellite owned by SpaceX/Seattle (US) in LEO that was launched on Fri, 13 Dec 2024 UTC via an FALCON 9 launch vehicle from the Air Force Western Test Range (AFWTR). Payload-class satellites include a variety of spacecraft equipped with specific instruments for various scientific and technological missions. These include communications satellites like Starlink; space stations such as the ISS; scientific satellites like the Hubble; Earth observation satellites from companies like Planet Labs, Umbra, and HawkEye 360; GPS; miniature CubeSats for education and research; and military/defense satellites.

Loading next visibility...
Identifier
62301, 2024-239A
Orbit
LEO
Country
Flag of USUS
Related business
Manufacturer
SpaceX/Seattle
Mission
Operational Commercial Communications
Bus & Motor
STARLINK V2M, Unknown motor
Mass
730 kg wet, ~700 kg dry
Launch date (UTC)
2024-12-13 (2 years ago)
Launch vehicle
FALCON 9
Launch site
Air Force Western Test Range (AFWTR)
Object type
Payload
Rocket body
Debris
Shape & HBR
Box + 2 Pan, 17.7 m
Radar Cross Section
33.884 m², Large (>1 m²)

Expand to show TLE details & history
Last TLE update: 1 day ago

TLE from 1 day ago
0 STARLINK-32648
1 62301U 24239A   26170.95668478  .00028671  00000-0  85604-3 0  9991
2 62301  53.1602  65.9710 0001187  84.0386 276.0752 15.34415695 85224
Epoch: 2026-06-19T22:57Z
TLE epoch observation values (Epoch: 2026-06-19T22:57:37.564Z)
Latitude
-0.00004°
Longitude
173.38624°
Altitude
463.472 km
Speed
7.636 km/s
True Right ascension
04h 23m 53s
True Declination
0° 00' 00"
Sunlit
Object was in daylight at epoch
Visualization orbit readout
Latitude
Unknown
Longitude
Unknown
Altitude
Unknown
Speed
Unknown
Apparent Right ascension
Unknown
Apparent Declination
Unknown
Sunlit
N/A
Visualization observer readout
Local Sidereal Time
10:17:55
Azimuth
Unknown
Elevation
Unknown
Doppler factor
Unknown
Orbital elements
Apogee altitude
463.725 km
Perigee altitude
462.101 km
Semi-major axis
6,841.05 km
Eccentricity
0.00012
Inclination
53.1602°
RAAN
65.971°
Arg. of periapsis
84.0386°
True anomaly
276.06167°
Mean anomaly
276.0752°
Eccentric anomaly
276.06844°
Mean motion
3.83583 °/min
Orbital period
93.85 mins
BSTAR
0.00085604
Loading maneuver chart data...
Computing Atmospheric mass density...
Loading historical data...
Loading historical data...
Loading historical data...
Loading historical data...
Loading historical data...
Loading historical data...
Loading historical data...

Documentation

Showing up to 5 results
|